Multibeam Report for RR1305


Ship Name: Roger Revelle
Chief Scientist: Pinkel, Robert
Scripps Institution of Oceanography
Source Organization: Rolling Deck to Repository
Start Date: 2013-05-07
End Date: 2013-05-16


View ISO Metadata

Visit the full NCEI Bathymetry Viewer


Multibeam Bathymetry

Cruise Details

Project: Moorings, drifters, and gliders south of Taiwan - Leg 2
Instrument: Kongsberg EM122

Data Quality

Number of Files: 297
Number of Records: 128592
BATHYMETRY DATA Quantity Percentage
Number of Beams 55551744 100%
Number of Good Beams 52616295 94.72%
Number of Zero Beams 0 0%
Number of Flagged Beams 2935449 5.28%
AMPLITUDE DATA Quantity Percentage
Number of Beams 55551744 100%
Number of Good Beams 52616295 94.72%
Number of Zero Beams 0 0%
Number of Flagged Beams 2935449 5.28%
SIDESCAN DATA Quantity Percentage
Number of Pixels 131678208 100%
Number of Good Pixels 97033166 73.69%
Number of Zero Pixels 0 0%
Number of Flagged Pixels 34645042 26.31%

Navigation Totals

Total Time: 176.2231 hours
Total Track Length: 1344.5816 km
Average Speed: 7.63 km/hr (4.1199 knots)

Cruise Bounds

Northern Extent: 21.417913
Southern Extent: 20.589869
Western Extent: 121.08846
Eastern Extent: 122.21434

Limits

Minimum Sonar Depth 0 Maximum Sonar Depth 6.9807
Minimum Altitude 205.1608 Maximum Altitude 4468.3311
Minimum Depth 129.5129 Maximum Depth 4962.2236
Minimum Amplitude 0 Maximum Amplitude 16.8
Minimum Sidescan 0 Maximum Sidescan 23.71

File Information

Full Resolution Bathymetry as collected (raw): 293

Files File Size Description
0000_20130509_021552_ShipName.all.mb58.gz 8.3KB Kongsberg multibeam vendor format
0000_20130509_031052_ShipName.all.mb58.gz 8.3KB Kongsberg multibeam vendor format
0000_20130509_032928_ShipName.all.mb58.gz 8.3KB Kongsberg multibeam vendor format
0000_20130509_041304_ShipName.all.mb58.gz 8.3KB Kongsberg multibeam vendor format
0000_20130516_071932_revelle.all.mb58.gz 105.6KB Kongsberg multibeam vendor format
0000_20130516_074604_revelle.all.mb58.gz 6.4KB Kongsberg multibeam vendor format
0000_20130516_093006_revelle.all.mb58.gz 6.4KB Kongsberg multibeam vendor format
0000_20130516_100758_revelle.all.mb58.gz 6.4KB Kongsberg multibeam vendor format
0001_20130509_020148_ShipName.all.mb58.gz 9.34MB Kongsberg multibeam vendor format
0001_20130509_024600_ShipName.all.mb58.gz 123.1KB Kongsberg multibeam vendor format
0001_20130516_072214_revelle.all.mb58.gz 469.6KB Kongsberg multibeam vendor format
0002_20130509_024821_ShipName.all.mb58.gz 94.8KB Kongsberg multibeam vendor format
0002_20130516_072250_revelle.all.mb58.gz 265.1KB Kongsberg multibeam vendor format
0003_20130509_025148_ShipName.all.mb58.gz 76.6KB Kongsberg multibeam vendor format
0003_20130516_072307_revelle.all.mb58.gz 0.89MB Kongsberg multibeam vendor format
0004_20130509_025749_ShipName.all.mb58.gz 7.48MB Kongsberg multibeam vendor format
0004_20130509_031539_ShipName.all.mb58.gz 7.08MB Kongsberg multibeam vendor format
0004_20130509_033706_ShipName.all.mb58.gz 13.33MB Kongsberg multibeam vendor format
0004_20130516_072411_revelle.all.mb58.gz 189.9KB Kongsberg multibeam vendor format
0005_20130509_040651_ShipName.all.mb58.gz 2.76MB Kongsberg multibeam vendor format
0005_20130509_043321_ShipName.all.mb58.gz 3.04MB Kongsberg multibeam vendor format
0005_20130516_072425_revelle.all.mb58.gz 3.36MB Kongsberg multibeam vendor format
0005_20130516_073026_revelle.all.mb58.gz 14.76MB Kongsberg multibeam vendor format
0005_20130516_075228_revelle.all.mb58.gz 60.11MB Kongsberg multibeam vendor format
0006_20130509_044448_ShipName.all.mb58.gz 1.56MB Kongsberg multibeam vendor format
0006_20130516_085214_revelle.all.mb58.gz 7.57MB Kongsberg multibeam vendor format
0006_20130516_090219_revelle.all.mb58.gz 0.99MB Kongsberg multibeam vendor format
0006_20130516_090521_revelle.all.mb58.gz 23.53MB Kongsberg multibeam vendor format
0006_20130516_093539_revelle.all.mb58.gz 42.39MB Kongsberg multibeam vendor format
0006_20130516_102359_revelle.all.mb58.gz 16.28MB Kongsberg multibeam vendor format
0007_20130509_045127_ShipName.all.mb58.gz 7.70MB Kongsberg multibeam vendor format
0007_20130516_104204_revelle.all.mb58.gz 6.17MB Kongsberg multibeam vendor format
0008_20130509_052115_ShipName.all.mb58.gz 7.82MB Kongsberg multibeam vendor format
0008_20130516_104911_revelle.all.mb58.gz 45.53MB Kongsberg multibeam vendor format
0009_20130509_055116_ShipName.all.mb58.gz 7.69MB Kongsberg multibeam vendor format
0009_20130516_114908_revelle.all.mb58.gz 57.27MB Kongsberg multibeam vendor format
0010_20130509_062112_ShipName.all.mb58.gz 7.75MB Kongsberg multibeam vendor format
0010_20130516_124903_revelle.all.mb58.gz 39.65MB Kongsberg multibeam vendor format
0011_20130509_065113_ShipName.all.mb58.gz 11.89MB Kongsberg multibeam vendor format
0011_20130516_134909_revelle.all.mb58.gz 38.18MB Kongsberg multibeam vendor format
0012_20130509_072113_ShipName.all.mb58.gz 18.01MB Kongsberg multibeam vendor format
0013_20130509_075113_ShipName.all.mb58.gz 19.92MB Kongsberg multibeam vendor format
0014_20130509_082113_ShipName.all.mb58.gz 19.49MB Kongsberg multibeam vendor format
0015_20130509_085116_ShipName.all.mb58.gz 17.40MB Kongsberg multibeam vendor format
0016_20130509_092114_ShipName.all.mb58.gz 19.82MB Kongsberg multibeam vendor format
0017_20130509_095112_ShipName.all.mb58.gz 19.75MB Kongsberg multibeam vendor format
0018_20130509_102114_ShipName.all.mb58.gz 19.81MB Kongsberg multibeam vendor format
0019_20130509_105114_ShipName.all.mb58.gz 20.27MB Kongsberg multibeam vendor format
0020_20130509_112112_ShipName.all.mb58.gz 20.69MB Kongsberg multibeam vendor format
0021_20130509_115114_ShipName.all.mb58.gz 20.63MB Kongsberg multibeam vendor format
0022_20130509_122112_ShipName.all.mb58.gz 21.14MB Kongsberg multibeam vendor format
0023_20130509_125113_ShipName.all.mb58.gz 20.98MB Kongsberg multibeam vendor format
0024_20130509_132113_ShipName.all.mb58.gz 20.25MB Kongsberg multibeam vendor format
0025_20130509_135115_ShipName.all.mb58.gz 19.42MB Kongsberg multibeam vendor format
0026_20130509_142114_ShipName.all.mb58.gz 18.76MB Kongsberg multibeam vendor format
0027_20130509_145115_ShipName.all.mb58.gz 17.40MB Kongsberg multibeam vendor format
0028_20130509_152115_ShipName.all.mb58.gz 15.85MB Kongsberg multibeam vendor format
0029_20130509_155112_ShipName.all.mb58.gz 15.65MB Kongsberg multibeam vendor format
0030_20130509_162113_ShipName.all.mb58.gz 19.72MB Kongsberg multibeam vendor format
0031_20130509_165114_ShipName.all.mb58.gz 19.76MB Kongsberg multibeam vendor format
0032_20130509_172115_ShipName.all.mb58.gz 19.71MB Kongsberg multibeam vendor format
0033_20130509_175113_ShipName.all.mb58.gz 19.80MB Kongsberg multibeam vendor format
0034_20130509_182114_ShipName.all.mb58.gz 20.75MB Kongsberg multibeam vendor format
0035_20130509_185113_ShipName.all.mb58.gz 20.46MB Kongsberg multibeam vendor format
0036_20130509_192113_ShipName.all.mb58.gz 19.72MB Kongsberg multibeam vendor format
0037_20130509_195116_ShipName.all.mb58.gz 19.33MB Kongsberg multibeam vendor format
0038_20130509_202114_ShipName.all.mb58.gz 19.55MB Kongsberg multibeam vendor format
0039_20130509_205114_ShipName.all.mb58.gz 16.10MB Kongsberg multibeam vendor format
0040_20130509_212114_ShipName.all.mb58.gz 19.75MB Kongsberg multibeam vendor format
0041_20130509_215115_ShipName.all.mb58.gz 19.82MB Kongsberg multibeam vendor format
0042_20130509_222114_ShipName.all.mb58.gz 18.14MB Kongsberg multibeam vendor format
0043_20130509_225113_ShipName.all.mb58.gz 17.13MB Kongsberg multibeam vendor format
0044_20130509_232113_ShipName.all.mb58.gz 19.96MB Kongsberg multibeam vendor format
0045_20130509_235112_ShipName.all.mb58.gz 19.99MB Kongsberg multibeam vendor format
0046_20130510_002113_ShipName.all.mb58.gz 16.12MB Kongsberg multibeam vendor format
0047_20130510_005114_ShipName.all.mb58.gz 19.16MB Kongsberg multibeam vendor format
0048_20130510_012112_ShipName.all.mb58.gz 19.71MB Kongsberg multibeam vendor format
0049_20130510_015114_ShipName.all.mb58.gz 18.89MB Kongsberg multibeam vendor format
0050_20130510_022113_ShipName.all.mb58.gz 16.17MB Kongsberg multibeam vendor format
0051_20130510_025115_ShipName.all.mb58.gz 20.04MB Kongsberg multibeam vendor format
0052_20130510_032116_ShipName.all.mb58.gz 19.97MB Kongsberg multibeam vendor format
0053_20130510_035113_ShipName.all.mb58.gz 17.24MB Kongsberg multibeam vendor format
0054_20130510_042117_ShipName.all.mb58.gz 18.12MB Kongsberg multibeam vendor format
0055_20130510_045114_ShipName.all.mb58.gz 19.89MB Kongsberg multibeam vendor format
0056_20130510_052114_ShipName.all.mb58.gz 19.40MB Kongsberg multibeam vendor format
0057_20130510_055116_ShipName.all.mb58.gz 16.30MB Kongsberg multibeam vendor format
0058_20130510_062114_ShipName.all.mb58.gz 19.95MB Kongsberg multibeam vendor format
0059_20130510_065114_ShipName.all.mb58.gz 20.06MB Kongsberg multibeam vendor format
0060_20130510_072115_ShipName.all.mb58.gz 17.12MB Kongsberg multibeam vendor format
0061_20130510_075118_ShipName.all.mb58.gz 18.31MB Kongsberg multibeam vendor format
0062_20130510_082115_ShipName.all.mb58.gz 19.80MB Kongsberg multibeam vendor format
0063_20130510_085114_ShipName.all.mb58.gz 19.50MB Kongsberg multibeam vendor format
0064_20130510_092114_ShipName.all.mb58.gz 15.98MB Kongsberg multibeam vendor format
0065_20130510_095113_ShipName.all.mb58.gz 19.83MB Kongsberg multibeam vendor format
0066_20130510_102114_ShipName.all.mb58.gz 19.64MB Kongsberg multibeam vendor format
0067_20130510_105114_ShipName.all.mb58.gz 19.58MB Kongsberg multibeam vendor format
0068_20130510_112114_ShipName.all.mb58.gz 19.76MB Kongsberg multibeam vendor format
0069_20130510_115115_ShipName.all.mb58.gz 19.63MB Kongsberg multibeam vendor format
0070_20130510_122114_ShipName.all.mb58.gz 19.33MB Kongsberg multibeam vendor format
0071_20130510_125115_ShipName.all.mb58.gz 19.35MB Kongsberg multibeam vendor format
0072_20130510_132116_ShipName.all.mb58.gz 20.18MB Kongsberg multibeam vendor format
0073_20130510_135114_ShipName.all.mb58.gz 20.97MB Kongsberg multibeam vendor format
0074_20130510_142115_ShipName.all.mb58.gz 21.71MB Kongsberg multibeam vendor format
0075_20130510_145114_ShipName.all.mb58.gz 20.57MB Kongsberg multibeam vendor format
0076_20130510_152116_ShipName.all.mb58.gz 19.44MB Kongsberg multibeam vendor format
0077_20130510_155114_ShipName.all.mb58.gz 18.19MB Kongsberg multibeam vendor format
0078_20130510_162117_ShipName.all.mb58.gz 17.70MB Kongsberg multibeam vendor format
0079_20130510_165116_ShipName.all.mb58.gz 16.48MB Kongsberg multibeam vendor format
0080_20130510_172117_ShipName.all.mb58.gz 15.69MB Kongsberg multibeam vendor format
0081_20130510_175113_ShipName.all.mb58.gz 15.16MB Kongsberg multibeam vendor format
0082_20130510_182116_ShipName.all.mb58.gz 16.40MB Kongsberg multibeam vendor format
0083_20130510_185114_ShipName.all.mb58.gz 20.30MB Kongsberg multibeam vendor format
0084_20130510_192115_ShipName.all.mb58.gz 19.54MB Kongsberg multibeam vendor format
0085_20130510_195114_ShipName.all.mb58.gz 19.56MB Kongsberg multibeam vendor format
0086_20130510_202114_ShipName.all.mb58.gz 19.43MB Kongsberg multibeam vendor format
0087_20130510_205115_ShipName.all.mb58.gz 19.41MB Kongsberg multibeam vendor format
0088_20130510_212114_ShipName.all.mb58.gz 19.33MB Kongsberg multibeam vendor format
0089_20130510_215114_ShipName.all.mb58.gz 19.24MB Kongsberg multibeam vendor format
0090_20130510_222114_ShipName.all.mb58.gz 19.27MB Kongsberg multibeam vendor format
0091_20130510_225116_ShipName.all.mb58.gz 19.50MB Kongsberg multibeam vendor format
0092_20130510_232114_ShipName.all.mb58.gz 19.55MB Kongsberg multibeam vendor format
0093_20130510_235114_ShipName.all.mb58.gz 19.53MB Kongsberg multibeam vendor format
0094_20130511_002115_ShipName.all.mb58.gz 19.69MB Kongsberg multibeam vendor format
0095_20130511_005114_ShipName.all.mb58.gz 17.01MB Kongsberg multibeam vendor format
0096_20130511_012141_ShipName.all.mb58.gz 8.48MB Kongsberg multibeam vendor format
0097_20130511_014008_ShipName.all.mb58.gz 5.59MB Kongsberg multibeam vendor format
0098_20130511_014954_ShipName.all.mb58.gz 19.65MB Kongsberg multibeam vendor format
0099_20130511_021940_ShipName.all.mb58.gz 4.97MB Kongsberg multibeam vendor format
0099_20130511_023447_ShipName.all.mb58.gz 17.01MB Kongsberg multibeam vendor format
0100_20130511_030436_ShipName.all.mb58.gz 16.36MB Kongsberg multibeam vendor format
0101_20130511_033432_ShipName.all.mb58.gz 15.24MB Kongsberg multibeam vendor format
0102_20130511_040434_ShipName.all.mb58.gz 15.23MB Kongsberg multibeam vendor format
0103_20130511_043432_ShipName.all.mb58.gz 15.24MB Kongsberg multibeam vendor format
0104_20130511_050434_ShipName.all.mb58.gz 16.97MB Kongsberg multibeam vendor format
0105_20130511_053435_ShipName.all.mb58.gz 17.68MB Kongsberg multibeam vendor format
0106_20130511_060433_ShipName.all.mb58.gz 17.60MB Kongsberg multibeam vendor format
0107_20130511_063435_ShipName.all.mb58.gz 17.49MB Kongsberg multibeam vendor format
0108_20130511_070435_ShipName.all.mb58.gz 17.53MB Kongsberg multibeam vendor format
0109_20130511_073431_ShipName.all.mb58.gz 17.63MB Kongsberg multibeam vendor format
0110_20130511_080433_ShipName.all.mb58.gz 17.67MB Kongsberg multibeam vendor format
0111_20130511_083433_ShipName.all.mb58.gz 17.70MB Kongsberg multibeam vendor format
0112_20130511_090436_ShipName.all.mb58.gz 17.60MB Kongsberg multibeam vendor format
0113_20130511_093433_ShipName.all.mb58.gz 17.75MB Kongsberg multibeam vendor format
0114_20130511_100434_ShipName.all.mb58.gz 17.83MB Kongsberg multibeam vendor format
0115_20130511_103435_ShipName.all.mb58.gz 18.18MB Kongsberg multibeam vendor format
0116_20130511_110432_ShipName.all.mb58.gz 18.54MB Kongsberg multibeam vendor format
0117_20130511_113432_ShipName.all.mb58.gz 18.48MB Kongsberg multibeam vendor format
0118_20130511_120434_ShipName.all.mb58.gz 18.32MB Kongsberg multibeam vendor format
0119_20130511_123433_ShipName.all.mb58.gz 18.16MB Kongsberg multibeam vendor format
0120_20130511_130433_ShipName.all.mb58.gz 18.03MB Kongsberg multibeam vendor format
0121_20130511_133434_ShipName.all.mb58.gz 17.50MB Kongsberg multibeam vendor format
0122_20130511_140432_ShipName.all.mb58.gz 15.08MB Kongsberg multibeam vendor format
0123_20130511_143438_ShipName.all.mb58.gz 15.14MB Kongsberg multibeam vendor format
0124_20130511_150436_ShipName.all.mb58.gz 15.24MB Kongsberg multibeam vendor format
0125_20130511_153436_ShipName.all.mb58.gz 16.12MB Kongsberg multibeam vendor format
0126_20130511_160434_ShipName.all.mb58.gz 17.13MB Kongsberg multibeam vendor format
0127_20130511_163432_ShipName.all.mb58.gz 18.14MB Kongsberg multibeam vendor format
0128_20130511_170432_ShipName.all.mb58.gz 19.39MB Kongsberg multibeam vendor format
0129_20130511_173432_ShipName.all.mb58.gz 21.10MB Kongsberg multibeam vendor format
0130_20130511_180432_ShipName.all.mb58.gz 21.05MB Kongsberg multibeam vendor format
0131_20130511_183432_ShipName.all.mb58.gz 20.24MB Kongsberg multibeam vendor format
0132_20130511_190433_ShipName.all.mb58.gz 19.97MB Kongsberg multibeam vendor format
0133_20130511_193435_ShipName.all.mb58.gz 19.59MB Kongsberg multibeam vendor format
0134_20130511_200434_ShipName.all.mb58.gz 19.70MB Kongsberg multibeam vendor format
0135_20130511_203434_ShipName.all.mb58.gz 19.90MB Kongsberg multibeam vendor format
0136_20130511_210432_ShipName.all.mb58.gz 19.75MB Kongsberg multibeam vendor format
0137_20130511_213434_ShipName.all.mb58.gz 19.78MB Kongsberg multibeam vendor format
0138_20130511_220435_ShipName.all.mb58.gz 19.64MB Kongsberg multibeam vendor format
0139_20130511_223435_ShipName.all.mb58.gz 19.86MB Kongsberg multibeam vendor format
0140_20130511_230432_ShipName.all.mb58.gz 19.72MB Kongsberg multibeam vendor format
0141_20130511_233432_ShipName.all.mb58.gz 20.26MB Kongsberg multibeam vendor format
0142_20130512_000434_ShipName.all.mb58.gz 20.51MB Kongsberg multibeam vendor format
0143_20130512_003434_ShipName.all.mb58.gz 20.97MB Kongsberg multibeam vendor format
0144_20130512_010432_ShipName.all.mb58.gz 20.15MB Kongsberg multibeam vendor format
0145_20130512_013432_ShipName.all.mb58.gz 19.75MB Kongsberg multibeam vendor format
0146_20130512_020435_ShipName.all.mb58.gz 19.96MB Kongsberg multibeam vendor format
0147_20130512_023433_ShipName.all.mb58.gz 20.82MB Kongsberg multibeam vendor format
0148_20130512_030432_ShipName.all.mb58.gz 14.13MB Kongsberg multibeam vendor format
0149_20130512_033148_ShipName.all.mb58.gz 7.89MB Kongsberg multibeam vendor format
0150_20130512_034230_ShipName.all.mb58.gz 158.5KB Kongsberg multibeam vendor format
0151_20130512_034603_ShipName.all.mb58.gz 11.83MB Kongsberg multibeam vendor format
0152_20130512_040641_ShipName.all.mb58.gz 0.75MB Kongsberg multibeam vendor format
0153_20130512_040823_ShipName.all.mb58.gz 17.78MB Kongsberg multibeam vendor format
0154_20130512_044337_ShipName.all.mb58.gz 3.40MB Kongsberg multibeam vendor format
0156_20130512_045246_ShipName.all.mb58.gz 15.35MB Kongsberg multibeam vendor format
0157_20130512_051446_ShipName.all.mb58.gz 17.28MB Kongsberg multibeam vendor format
0158_20130512_053442_ShipName.all.mb58.gz 427.1KB Kongsberg multibeam vendor format
0159_20130512_053902_ShipName.all.mb58.gz 2.24MB Kongsberg multibeam vendor format
0160_20130512_054205_ShipName.all.mb58.gz 2.41MB Kongsberg multibeam vendor format
0161_20130512_055055_ShipName.all.mb58.gz 21.01MB Kongsberg multibeam vendor format
0162_20130512_061539_ShipName.all.mb58.gz 3.91MB Kongsberg multibeam vendor format
0162_20130512_062237_ShipName.all.mb58.gz 158.8KB Kongsberg multibeam vendor format
0163_20130512_062405_ShipName.all.mb58.gz 7.23MB Kongsberg multibeam vendor format
0164_20130512_064158_ShipName.all.mb58.gz 9.59MB Kongsberg multibeam vendor format
0166_20130512_070750_ShipName.all.mb58.gz 55.55MB Kongsberg multibeam vendor format
0167_20130512_080732_ShipName.all.mb58.gz 58.89MB Kongsberg multibeam vendor format
0168_20130512_090731_ShipName.all.mb58.gz 61.95MB Kongsberg multibeam vendor format
0169_20130512_100732_ShipName.all.mb58.gz 60.32MB Kongsberg multibeam vendor format
0170_20130512_110729_ShipName.all.mb58.gz 57.39MB Kongsberg multibeam vendor format
0171_20130512_120737_ShipName.all.mb58.gz 54.79MB Kongsberg multibeam vendor format
0172_20130512_130731_ShipName.all.mb58.gz 58.62MB Kongsberg multibeam vendor format
0173_20130512_140733_ShipName.all.mb58.gz 61.04MB Kongsberg multibeam vendor format
0174_20130512_150732_ShipName.all.mb58.gz 62.02MB Kongsberg multibeam vendor format
0175_20130512_160729_ShipName.all.mb58.gz 60.33MB Kongsberg multibeam vendor format
0176_20130512_170729_ShipName.all.mb58.gz 61.10MB Kongsberg multibeam vendor format
0177_20130512_180729_ShipName.all.mb58.gz 59.26MB Kongsberg multibeam vendor format
0178_20130512_190731_ShipName.all.mb58.gz 60.76MB Kongsberg multibeam vendor format
0179_20130512_200733_ShipName.all.mb58.gz 62.30MB Kongsberg multibeam vendor format
0180_20130512_210731_ShipName.all.mb58.gz 61.44MB Kongsberg multibeam vendor format
0181_20130512_220731_ShipName.all.mb58.gz 60.27MB Kongsberg multibeam vendor format
0182_20130512_230731_ShipName.all.mb58.gz 61.11MB Kongsberg multibeam vendor format
0183_20130513_000734_ShipName.all.mb58.gz 61.62MB Kongsberg multibeam vendor format
0184_20130513_010731_ShipName.all.mb58.gz 61.01MB Kongsberg multibeam vendor format
0185_20130513_020730_ShipName.all.mb58.gz 60.05MB Kongsberg multibeam vendor format
0186_20130513_030734_ShipName.all.mb58.gz 60.58MB Kongsberg multibeam vendor format
0187_20130513_040733_ShipName.all.mb58.gz 61.40MB Kongsberg multibeam vendor format
0188_20130513_050730_ShipName.all.mb58.gz 55.24MB Kongsberg multibeam vendor format
0189_20130513_060732_ShipName.all.mb58.gz 61.55MB Kongsberg multibeam vendor format
0190_20130513_070730_ShipName.all.mb58.gz 59.70MB Kongsberg multibeam vendor format
0191_20130513_080735_ShipName.all.mb58.gz 55.77MB Kongsberg multibeam vendor format
0192_20130513_090736_ShipName.all.mb58.gz 55.81MB Kongsberg multibeam vendor format
0193_20130513_100730_ShipName.all.mb58.gz 60.52MB Kongsberg multibeam vendor format
0194_20130513_110732_ShipName.all.mb58.gz 59.63MB Kongsberg multibeam vendor format
0195_20130513_120733_ShipName.all.mb58.gz 54.76MB Kongsberg multibeam vendor format
0196_20130513_130733_ShipName.all.mb58.gz 60.08MB Kongsberg multibeam vendor format
0197_20130513_140732_ShipName.all.mb58.gz 60.57MB Kongsberg multibeam vendor format
0198_20130513_150732_ShipName.all.mb58.gz 60.76MB Kongsberg multibeam vendor format
0199_20130513_160731_ShipName.all.mb58.gz 62.23MB Kongsberg multibeam vendor format
0200_20130513_170733_ShipName.all.mb58.gz 61.61MB Kongsberg multibeam vendor format
0201_20130513_180729_ShipName.all.mb58.gz 61.82MB Kongsberg multibeam vendor format
0202_20130513_190733_ShipName.all.mb58.gz 59.68MB Kongsberg multibeam vendor format
0203_20130513_200731_ShipName.all.mb58.gz 57.28MB Kongsberg multibeam vendor format
0204_20130513_210730_ShipName.all.mb58.gz 62.42MB Kongsberg multibeam vendor format
0205_20130513_220730_ShipName.all.mb58.gz 61.15MB Kongsberg multibeam vendor format
0206_20130513_230730_ShipName.all.mb58.gz 61.38MB Kongsberg multibeam vendor format
0207_20130514_000734_ShipName.all.mb58.gz 61.93MB Kongsberg multibeam vendor format
0208_20130514_010733_ShipName.all.mb58.gz 61.02MB Kongsberg multibeam vendor format
0209_20130514_020734_ShipName.all.mb58.gz 60.88MB Kongsberg multibeam vendor format
0210_20130514_030733_ShipName.all.mb58.gz 60.18MB Kongsberg multibeam vendor format
0211_20130514_040732_ShipName.all.mb58.gz 60.61MB Kongsberg multibeam vendor format
0212_20130514_050733_ShipName.all.mb58.gz 60.46MB Kongsberg multibeam vendor format
0213_20130514_060733_ShipName.all.mb58.gz 53.57MB Kongsberg multibeam vendor format
0214_20130514_070736_ShipName.all.mb58.gz 24.98MB Kongsberg multibeam vendor format
0215_20130514_073354_ShipName.all.mb58.gz 59.81MB Kongsberg multibeam vendor format
0216_20130514_083350_ShipName.all.mb58.gz 61.55MB Kongsberg multibeam vendor format
0217_20130514_093349_ShipName.all.mb58.gz 57.50MB Kongsberg multibeam vendor format
0218_20130514_103350_ShipName.all.mb58.gz 54.39MB Kongsberg multibeam vendor format
0219_20130514_113357_ShipName.all.mb58.gz 51.49MB Kongsberg multibeam vendor format
0220_20130514_123356_ShipName.all.mb58.gz 56.51MB Kongsberg multibeam vendor format
0221_20130514_133351_ShipName.all.mb58.gz 61.55MB Kongsberg multibeam vendor format
0222_20130514_143350_ShipName.all.mb58.gz 61.60MB Kongsberg multibeam vendor format
0223_20130514_153349_ShipName.all.mb58.gz 60.39MB Kongsberg multibeam vendor format
0224_20130514_163349_ShipName.all.mb58.gz 61.36MB Kongsberg multibeam vendor format
0225_20130514_173351_ShipName.all.mb58.gz 60.93MB Kongsberg multibeam vendor format
0226_20130514_183353_ShipName.all.mb58.gz 60.90MB Kongsberg multibeam vendor format
0227_20130514_193353_ShipName.all.mb58.gz 59.54MB Kongsberg multibeam vendor format
0228_20130514_203352_ShipName.all.mb58.gz 61.97MB Kongsberg multibeam vendor format
0229_20130514_213351_ShipName.all.mb58.gz 61.51MB Kongsberg multibeam vendor format
0230_20130514_223352_ShipName.all.mb58.gz 61.40MB Kongsberg multibeam vendor format
0231_20130514_233348_ShipName.all.mb58.gz 61.16MB Kongsberg multibeam vendor format
0232_20130515_003348_ShipName.all.mb58.gz 61.19MB Kongsberg multibeam vendor format
0233_20130515_013350_ShipName.all.mb58.gz 18.14MB Kongsberg multibeam vendor format
0234_20130515_015138_ShipName.all.mb58.gz 471.2KB Kongsberg multibeam vendor format
0236_20130515_015452_ShipName.all.mb58.gz 61.08MB Kongsberg multibeam vendor format
0237_20130515_025434_ShipName.all.mb58.gz 64.64MB Kongsberg multibeam vendor format
0238_20130515_035432_ShipName.all.mb58.gz 61.21MB Kongsberg multibeam vendor format
0239_20130515_045433_ShipName.all.mb58.gz 58.38MB Kongsberg multibeam vendor format
0240_20130515_055433_ShipName.all.mb58.gz 58.76MB Kongsberg multibeam vendor format
0241_20130515_065434_ShipName.all.mb58.gz 57.05MB Kongsberg multibeam vendor format
0242_20130515_075438_ShipName.all.mb58.gz 55.83MB Kongsberg multibeam vendor format
0243_20130515_085432_ShipName.all.mb58.gz 61.68MB Kongsberg multibeam vendor format
0244_20130515_095433_ShipName.all.mb58.gz 61.84MB Kongsberg multibeam vendor format
0245_20130515_105436_ShipName.all.mb58.gz 59.00MB Kongsberg multibeam vendor format
0246_20130515_115432_ShipName.all.mb58.gz 57.66MB Kongsberg multibeam vendor format
0247_20130515_125437_ShipName.all.mb58.gz 55.83MB Kongsberg multibeam vendor format
0248_20130515_135436_ShipName.all.mb58.gz 54.57MB Kongsberg multibeam vendor format
0249_20130515_145440_ShipName.all.mb58.gz 56.01MB Kongsberg multibeam vendor format
0250_20130515_155437_ShipName.all.mb58.gz 60.07MB Kongsberg multibeam vendor format
0251_20130515_165433_ShipName.all.mb58.gz 60.65MB Kongsberg multibeam vendor format
0252_20130515_175433_ShipName.all.mb58.gz 60.62MB Kongsberg multibeam vendor format
0253_20130515_185438_ShipName.all.mb58.gz 52.82MB Kongsberg multibeam vendor format
0254_20130515_195540_revelle.all.mb58.gz 61.46MB Kongsberg multibeam vendor format
0255_20130515_205519_revelle.all.mb58.gz 62.01MB Kongsberg multibeam vendor format
0256_20130515_215521_revelle.all.mb58.gz 61.41MB Kongsberg multibeam vendor format
0257_20130515_225521_revelle.all.mb58.gz 61.71MB Kongsberg multibeam vendor format
0258_20130515_235521_revelle.all.mb58.gz 62.29MB Kongsberg multibeam vendor format
0259_20130516_005520_revelle.all.mb58.gz 60.51MB Kongsberg multibeam vendor format
0260_20130516_015523_revelle.all.mb58.gz 61.01MB Kongsberg multibeam vendor format
0261_20130516_025522_revelle.all.mb58.gz 61.64MB Kongsberg multibeam vendor format
0262_20130516_035521_revelle.all.mb58.gz 62.06MB Kongsberg multibeam vendor format
0263_20130516_045522_revelle.all.mb58.gz 42.84MB Kongsberg multibeam vendor format
0264_20130516_054033_revelle.all.mb58.gz 49.53MB Kongsberg multibeam vendor format
0265_20130516_064038_revelle.all.mb58.gz 34.53MB Kongsberg multibeam vendor format

Metadata Files: 3

Files File Size Description
RR1305_Multibeam.xml NGDC created ISO metadata
em122_bag_info.tar.gz 13.6KB Additional cruise information
xbt_bag_info.tar.gz 1.4KB Additional cruise information

Ancillary Files: 1

Files File Size Description
xbt.tar.gz 199.3KB Expendable Bathythermograph (XBT) data